www.pogodaiklimat.ru

Погода и климат >> Архив погоды >> Канада >> Toronto


АРХИВ ПОГОДЫ в Toronto

Время (UTC), дата Ветер
(напр.,м/с)
 
Видим.   Явления Облачность Т
(С)
Тd
(С)
f
(%)
Тe
(С)
Тes
(С)
Комфортность P
(гПа)
Po
(гПа)
Тmin
(С)
Tmax
(С)
R
(мм)
R24
(мм)
S
(см)
06 22.04 С 6 16 км слабый дождь 10/10 300 м
[Sc]
+5.8 +2.3 78 +1 +1 по сезону 1016.5 995.4 +5.8 +12.3 0.0 1
09 22.04 СЗ 5 24 км 4/4 600 м
[]
+4.7 +0.8 76 0 0 прохладно 1016.5 995.4
12 22.04 С 8 24 км {дождь} 9/9 600 м
[Sc]
+4.2 -0.2 73 -2 -2 прохладно 1018.4 997.2 +4.1 +12.3 0.0
15 22.04 С 7 24 км 10/10 600 м
[]
+7.7 +0.7 61 +3 +3 прохладно 1019.6 998.4
18 22.04 С 8 24 км 9/1 600 м
[Cu hum Ac trans Ci fib]
+11.7 -1.8 39 +9 +11 по сезону 1018.8 997.6 +4.1 +11.9
21 22.04 С 7 24 км 9/0
[]
+12.8 -2.6 34 +11 +12 по сезону 1018.3 997.2
00 23.04 С 5 24 км 3/0
[Ci fib]
+10.9 -0.5 45 +9 +9 по сезону 1018.9 997.7 +4.1 +13.4
03 23.04 С 5 24 км ясно +7.6 -3.0 47 +5 +5 по сезону 1019.8 998.6
06 23.04 З 2 24 км ясно +5.2 -2.6 57 +4 +4 по сезону 1020.0 998.8 +4.1 +13.4 181
09 23.04 ЮЗ 2 24 км ясно +3.1 -2.6 66 +1 +1 по сезону 1019.1 997.9
12 23.04 З 1 24 км ясно +5.7 -0.2 66 +5 +7 по сезону 1020.2 999.0 +2.3 +13.4
15 23.04 ЮЗ 4 24 км ясно +14.1 +2.4 45 +13 +22 тепло 1019.5 998.4
18 23.04 З 5 24 км ясно +18.7 +0.4 29 +18 +27 тепло 1017.4 996.4 +2.3 +19.0
21 23.04 З 5 24 км ясно +20.0 +1.1 28 +20 +24 тепло 1016.2 995.2
00 24.04 С 4 24 км 3/0 2000 м
[Ac As]
+16.9 +3.0 39 +16 +16 тепло 1017.2 996.2 +2.3 +20.3
03 24.04 С 5 24 км ясно +9.9 +1.8 57 +7 +7 по сезону 1018.9 997.9
06 24.04 СЗ 4 24 км ясно +7.5 +2.0 68 +5 +5 по сезону 1019.4 998.4 +2.3 +20.3 210
09 24.04 С 5 24 км 9/0
[]
+5.8 +1.9 76 +2 +2 по сезону 1020.4 999.4
12 24.04 В 5 24 км 1/0
[Ci fib]
+7.8 +2.5 69 +4 +6 по сезону 1022.3 1001.2 +5.6 +20.3
15 24.04 В 6 24 км ясно +9.4 +0.3 53 +6 +12 по сезону 1022.9 1001.7
18 24.04 В 7 24 км 6/0
[Ci fib]
+10.8 -0.0 47 +8 +12 прохладно 1021.6 1000.4 +5.6 +11.2
21 24.04 В 5 24 км 8/0
[]
+12.5 +1.0 45 +11 +13 по сезону 1019.9 998.7
00 25.04 В 4 24 км 8/0
[Cs]
+10.0 -1.1 46 +8 +8 по сезону 1018.6 997.5 +5.6 +12.8
03 25.04 ЮВ 5 24 км 3/0
[]
+9.0 +0.2 54 +6 +6 по сезону 1018.8 997.7
06 25.04 В 5 24 км 5/0
[Ci sp]
+7.5 +0.3 60 +4 +4 по сезону 1018.0 996.9 +5.6 +12.8 170
09 25.04 В 3 24 км 5/0
[]
+7.1 -0.1 60 +5 +5 по сезону 1016.5 995.4
12 25.04 В 6 16 км слабый дождь 10/10 1000 м
[Sc]
+7.2 +2.7 73 +3 +3 по сезону 1017.5 996.4 +6.9 +12.8 0.0
15 25.04 В 5 9000 м 10/10 100 м
[]
+7.7 +7.1 96 +4 +4 прохладно 1016.7 995.6
18 25.04 В 7 12 км слабый дождь 10/10 200 м
[Frnb]
+9.2 +8.3 94 +5 +5 холодно 1014.8 993.7 +5.7 +9.6 4
21 25.04 В 6 12 км 10/10 200 м
[]
+9.3 +7.9 91 +5 +5 холодно 1013.8 992.7
00 26.04 В 6 24 км {дождь} 9/1 300 м
[Sc Ac As Ci sp]
+10.6 +8.4 86 +7 +7 по сезону 1012.1 991.1 +5.7 +10.9 0.0
03 26.04 В 5 24 км 3/0
[]
+10.2 +8.2 87 +7 +7 по сезону 1011.2 990.2
06 26.04 В 3 24 км 6/5 600 м
[Sc Ac trans]
+9.6 +8.2 91 +7 +7 по сезону 1010.8 989.8 +5.7 +10.9 201
09 26.04 СВ 3 24 км 6/6 600 м
[]
+8.2 +7.1 93 +6 +6 по сезону 1009.9 988.9
12 26.04 В 4 24 км 1/1 300 м
[Sc]
+10.3 +8.6 89 +8 +9 тепло 1009.7 988.8 +8.1 +10.9
15 26.04 В 2 24 км 10/10 300 м
[]
+11.7 +9.6 87 +11 +11 тепло 1010.1 989.2
18 26.04 В 3 24 км 10/10 600 м
[Sc]
+14.4 +10.8 79 +13 +13 по сезону 1008.3 987.5 +8.1 +14.8
21 26.04 ЮВ 4 24 км 4/4 600 м
[]
+16.1 +11.5 74 +15 +19 тепло 1006.1 985.3
00 27.04 В 2 24 км 8/0
[Ci fib]
+14.0 +11.0 82 +13 +14 тепло 1005.9 985.1 +8.1 +16.7
03 27.04 В 1 24 км ясно +12.8 +10.9 88 +13 +13 тепло 1006.0 985.2
06 27.04 Ю 1 24 км ясно +11.0 +10.1 94 +11 +11 тепло 1005.2 984.5 +8.1 +16.7
09 27.04 З 2 24 км ясно +8.9 +8.3 96 +7 +7 по сезону 1004.5 983.8
12 27.04 ЮВ 1 24 км 6/0
[Ci fib]
+12.1 +10.5 90 +12 +14 тепло 1004.9 984.2 +8.7 +16.7
15 27.04 ЮВ 5 24 км 6/0
[]
+20.1 +13.4 65 +22 +26 комфорт 1003.9 983.4
18 27.04 ЮВ 5 24 км 9/1 1500 м
[Cu med, cong Ac As Ci fib]
+23.4 +14.5 57 +27 +32 душно 1002.5 982.1 +8.7 +23.9
21 27.04 ЮВ 5 24 км 9/9 1000 м
[]
+25.2 +14.8 52 +28 +28 жарко 999.1 978.7
00 28.04 Ю 2 19 км в посл. час гроза {ливн. осадки} 9/5 1500 м
[Cu med, cong Ac cuf Ci fib]
+17.3 +16.0 92 +18 +18 тепло 1002.5 982.0 +8.7 +25.7 5
03 28.04 ЮЗ 5 24 км 5/5 600 м
[]
+16.0 +14.0 88 +15 +15 тепло 1004.5 984.1
06 28.04 СЗ 6 24 км {ливн. осадки} 9/9 1000 м
[Sc]
+11.8 +7.2 73 +9 +9 тепло 1009.2 988.7 +8.7 +25.7 0.4 221
09 28.04 З 5 24 км 9/9 1000 м
[]
+9.8 +4.4 69 +7 +7 по сезону 1012.1 991.4
12 28.04 ЮЗ 4 24 км 6/3 1000 м
[Sc Ac trans Ci fib]
+11.0 +5.6 69 +9 +10 тепло 1015.0 994.1 +7.9 +25.7
15 28.04 ЮЗ 6 24 км 9/9 600 м
[]
+13.7 +5.4 57 +12 +12 тепло 1015.6 994.7
18 28.04 ЮЗ 5 24 км 8/1 600 м
[Cu hum Ci fib]
+16.9 +6.5 50 +16 +24 тепло 1015.2 994.3 +7.9 +16.9
21 28.04 ЮЗ 9 24 км 9/0
[]
+17.8 +5.5 44 +17 +17 тепло 1015.4 994.5
00 29.04 ЮЗ 5 24 км 9/0
[Ac As Ci sp]
+16.5 +4.6 45 +16 +16 тепло 1014.5 993.6 +7.9 +19.0
03 29.04 ЮЗ 3 24 км 8/0
[]
+15.1 +6.2 55 +14 +14 тепло 1014.3 993.5

 

Местоположение метеостанции Toronto (Канада): широта 43.67 долгота -79.63 высота над уровнем моря 173 м.

В архиве по умолчанию представлена погода в Toronto за последнюю неделю. Архивные данные за месяц целиком и за предыдущие месяцы, начиная с января 2011 года, Вы можете получить, выбрав интересующий диапазон дат из раскрывающегося списка и нажав кнопку "Ввод!".

Внимание! Время в таблицах - всемирное. Для получения местного времени необходимо прибавить поправку, которая в Toronto равна -5 ч.

Смотрите также архив погоды в соседних городах и на ближайших метеорологических станциях:

Погода в Toronto Aes Hq (Канада) (18 км)
Погода в Toronto City (Канада) (19 км)
Погода в Toronto Island Arpt (Канада) (19 км)
Погода в Toronto Buttonville (Канада) (31 км)
Погода в Buttonville (Канада) (31 км)
Погода в Burlington Piers (Канада) (43 км)
Погода в Hamilton Rbg Cs (Канада) (49 км)
Погода в Guelph Turfgrass (Канада) (49 км)
Погода в Vineland Station Rc (Канада) (58 км)
Погода в Port Weller (Канада) (58 км)

Пояснения к столбцам:

Ветер - указаны скорость ветра в м/с - средняя за 10 мин, порывы в срок и между сроками (в фигурных скобках) и направление, откуда дует ветер: С - северный, СВ - северо-восточный, В - восточный, ЮВ - юго-восточный, Ю - южный, ЮЗ - юго-западный, З - западный, СЗ - северо-западный.
Видимость - горизонтальная дальность видимости в метрах или километрах. При видимости от 1 до 10 км при отсутствии осадков обычно наблюдается дымка, при ухудшении видимости до 1 км и менее - туман. В сухую погоду видимость может ухудшаться дымом, пылью или мглою.
Явления - указаны атмосферные явления, наблюдавшиеся в срок или в последний час перед сроком; фигурными скобками обозначены явления, наблюдавшиеся между сроками (за 1-3 часа до срока); квадратными скобками обозначены град или гололедные отложения с указанием их диаметра в мм.
Облачность - указаны через наклонную черту общая и нижняя облачность в баллах и высота нижней границы облаков в метрах; квадратными скобками обозначены формы облаков: Ci - перистые, Cs - перисто-слоистые, Cc - перисто-кучевые, Ac - высококучевые, As - высокослоистые, Sc - слоисто-кучевые, Ns - слоисто-дождевые, Cu - кучевые, Cb - кучево-дождевые. Подробнее классификацию облаков см. в Атласе облаков (PDF).
T - Температура воздуха - температура, измеренная на высоте 2 м над землей.
Td - Температура точки росы - температура, при понижении до которой содержащийся в воздухе водяной пар достигнет насыщения.
f - Относительная влажность воздуха - влажноcть воздуха, измеренная на высоте 2 м над землей.
Te - Эффективная температура - температура, которую ощущает одетый по сезону человек в тени. Характеристика душности погоды. При расчете учитывается влияние влажности воздуха и скорости ветра на теплоощущения человека.
Tes - Эффективная температура на солнце - температура, которую ощущает человек, с поправкой на солнечный нагрев. Характеристика знойности погоды. Зависит от высоты солнца над горизонтом, облачности и скорости ветра. Ночью, в пасмурную погоду, а также при ветре 12 м/с и более поправка равна нулю.
P - Атмосферное давление - приведенное к уровню моря атмосферное давление.
Po - Атмосферное давление - измеренное на уровне метеостанции атмосферное давление.
Tmin - Минимальная температура - минимум температуры воздуха на высоте 2 м над землей.
Tmax - Максимальная температура - максимум температуры воздуха на высоте 2 м над землей.
R - Количество осадков - Количество выпавших осадков за период времени, мм. При наведении курсора мыши на число - период времени, за который выпало указанное количество осадков.
R24 - Количество осадков - Количество выпавших осадков за 24 часа, мм.
S - Снежный покров - Высота снежного покрова, см. При наведении курсора мыши на число - состояние снежного покрова и степень покрытия местности в баллах.